Погода в Сарагте

Погода в Сарагте : погода сейчас, прогноз погоды и архив. Всё, что Вы хотите узнать о погоде в Сарагте!

Поиск расширенной информации на нашем сайте:

Другие новости

Новости СМИ2

Главная страница сайта

Новости сайта

03.07.2017

Напоминаем, что на нашем специализированном сайте Метеоцентр.Азия вы можете получить высокодетализированные автоматические прогнозы погоды по пунктам России, СНГ и мира в авиационном формате (включающие направление и скорость ветра, видимость, явления погоды, количество и форму облачности, нижнюю и верхнюю границу облачности).


Погода в Сарагте - сегодня

Время (UTC), дата Ветер
(°,м/с) 
Видим.   Явления Облачность Т
(°С)
Тd
(°С)
f(%) Тe
(°С)
Pmin
(гПа)
dP
(гПа)
Po
(мм)
O2
(г/м3)
Тmin Tmax R s Состояние
почвы
15 18.11.18 тихо ()   20000 м    ясно 
+13.6 +8 69 +14  1022.3  0.4  742  283    +17.9       
18 18.11.18 320 (СЗ) 20000 м    ясно 
+11.2 +5.1 66 +12  1023.2  0.5  743  287    +17.9       
21 18.11.18 290 (З) 20000 м    ясно 
+8.7 +3.6 70 +9  1024  0.6  743  290           
00 19.11.18 тихо ()   20000 м    ясно 
+8.6 +4.3 74 +9  1021.2  -2.9  741  289           
03 19.11.18 200 (Ю) 20000 м    3/0 верхняя 
[Ci sp]
+7.2 +4 80 +8  1021.4  0.1  741  290           
06 19.11.18 290 (З) 20000 м    ясно 
+16 +6.1 52 +17  1021.2  0.8  741  281  +7.1         
09 19.11.18 320 (СЗ) 20000 м    4/0 верхняя 
[Ci sp]
+16.8 +6.2 50 +18  1020.7  -0.4  741  280           
12 19.11.18 340 (С) 20000 м    3/0 верхняя 
[Ci sp]
+17 +4.8 44 +17  1021  0.3  741  280           
15 19.11.18 340 (С) 20000 м    4/0 средняя 
[Ac cast]
+12.7 +5.9 63 +13  1022.9  1.5  743  285    +17.4       
18 19.11.18 340 (С) 20000 м    10/0 средняя, верхняя 
[Ac As|Cs]
+10.4 +5.6 72 +11  1026.9  2.5  744  288    +17.4       
21 19.11.18 020 (С) 20000 м    10/0 средняя 
[Ac As]
+9.4 +5.6 77 +9  1027.1  745  289           
00 20.11.18 320 (СЗ) 10 км  слаб. дождь  10/10 480 м 
[Frnb|Ns]
+9.2 +8 92 +10  1027.3  0.2  745  289           
03 20.11.18 160 (Ю) 20000 м  {дождь}  10/8 600 м средняя 
[Frnb|As trans]
+9.3 +7.8 90 +10  1027.8  0.6  746  289         
06 20.11.18 050 (СВ) 20000 м  {дождь}  10/0 средняя 
[As trans]
+10.3 +8 86 +10  1029  1.3  747  289  +9.1       
09 20.11.18 090 (В) 20000 м    9/4 600 м верхняя 
[Cu hum|Ci fib]
+13.9 +7.8 67 +15  1025.7  -2.8  745  284           
12 20.11.18 050 (СВ) 20000 м    10/0 средняя, верхняя 
[Ac As|Cs]
+13.3 +7.8 69 +13  1024.3  -1.4  744  284           
15 20.11.18 070 (В) 20000 м    4/0 средняя 
[Ac cast]
+11 +6.8 75 +12  1024.4  -0.3  743  287    +14.3       
18 20.11.18 тихо ()   20000 м    10/0 верхняя 
[Cs]
+9 +6.8 86 +9  1023.5  -1  743  289    +14.3       
21 20.11.18 070 (В) 20000 м    10/0 средняя, верхняя 
[Ac As|Cs]
+8.1 +6.1 87 +9  1023.3  -0.3  742  289           
00 21.11.18 тихо ()   20000 м    10/0 средняя, верхняя 
[Ac As|Cs]
+7.3 +6.2 93 +7  1019  -4.3  739  289           
03 21.11.18 160 (Ю) 10 км  слаб. дождь  10/10 300 м 
[Frnb|Ns]
+7.4 +6.5 94 +7  1016.9  -2  738  288      0.7     
06 21.11.18 180 (Ю) 20000 м  {дождь}  10/0 средняя 
[Ac As]
+11.5 +8.9 84 +12  1013.4  -2.8  736  283  +7.2         
09 21.11.18 290 (З) 10  10 км    9/0 средняя 
[Ac As]
+19.4 +8.2 48 +19  1009.2  -3.2  733  274        596  мокрый или
старый снег
50-90% 
12 21.11.18 320 (СЗ) 20000 м    9/0 средняя 
[Ac As]
+14.4 +6.4 59 +15  1010.3  0.5  734  280           
15 21.11.18 290 (З) 20000 м    4/0 средняя 
[Ac As]
+12 +7.4 73 +12  1013.7  736  283    +19.3  0.8    полностью
покрыта
пылью 
Время (UTC), дата Ветер
(°,м/с) 
Видим.   Явления Облачность Т
(°С)
Тd
(°С)
f(%) Тe
(°С)
Pmin
(гПа)
dP
(гПа)
Po
(мм)
O2
(г/м3)
Тmin Tmax R s Состояние
почвы

Для получения пояснительной информации подведите курсор к названию столбца.

ПОГОДА в Сарагте - архив

Всё, что Вы хотите узнать о погоде в Сарагте - удобно и подробно!

Выберите нужную дату (начиная с 1 января 2015* года) и нажмите кнопку "Найти".
Будут отображены архивные сводки погоды по пункту Сарагт, начиная с указанной даты.


Отображать данные в формате CSV (для использования в таблицах Excel)


Внимание! Наш архив погоды предназначен исключительно для личного некоммерческого использования в познавательных целях. Если Вам необходимы официальные справки о состоянии погоды (для производственных, юридических, коммерческих и т.п. целей), обращайтесь в органы Росгидромета.

*Примечание: данная дата относится к архиву по метеостанциям СССР (Россия, СНГ, Балтия).
Архив по метеостанциям Зарубежной Европы и Азии (кроме Китая) хранится 10 дней, по другим регионам земного шара (Китай, Африка, Америка, Австралия, Океания) - 1 день.

Сарагт - район местоположения метеостанции


Название, широта, долгота, высота метеостанции:
Сарагт 36.5°ш. 61.2°д. 275 м над ур. моря [Туркменистан]

Дополнительная информация

В oтличие oт бoльшинства пoгoдных сайтoв мы публикуем пoдрoбную метеoинфoрмацию в детальнoм прoфессиoнальнoм фoрмате.

Характеристики температуры и влажнoсти вoздуха измеряются на высoте 2 м в тени вдали oт зданий и деревьев.
Скoрoсть ветра измеряется на высoте 10 м (на урoвне рoста челoвека скoрoсть ветра ниже в 1.5-2 раза). Если метеoстанция нахoдится в гoрoде или в лесу, тo скoрoсть ветра занижена на 2-4 м/с пo сравнению с oткрытым местoм. Скoрoсть ветра над акватoриями крупных рек и oзёр, а также на вершинах хoлмoв на 2-5 м/с выше, чем в oбычных услoвиях.
Атмoсфернoе давление в разных тoчках местнoсти мoжет значительнo oтличаться oт давления на метеoстанции, в зависимoсти oт услoвий рельефа (при пoдъёме на 10 м давление пoнижается примернo на 1 мм рт.ст.).